Location: Asni�res
(49.1337°N, 2.3555°E)
Time: 02:59:40
(UTC+00:00)

Cosmos 2369 - Pass Details

Date: 16 October 2021
Orbit: 838 x 857 km, 71.0° (Epoch: 29 November)

Event Time Altitude Azimuth Distance (km) Brightness Sun altitude
Rises 18:44:33 0° 214° (SSW) 3,383 7.2 -18.1°
Reaches altitude 10° 18:46:59 10° 216° (SW) 2,454 6.5 -18.5°
Maximum altitude 18:52:36 71° 300° (WNW) 895 3.9 -19.4°
Drops below altitude 10° 18:58:18 10° 25° (NNE) 2,481 6.0 -20.3°
Sets 19:00:47 0° 28° (NNE) 3,423 6.7 -20.7°
